Weather in Üçaji

Turkmenistan     38°05′23″N   62°48′12″E
temp.,
°C
wind,
m/s
gust,
m/s
humid.,
%
clouds,
%
prec.,
mm/h
press.,
hPa
HPBL,
m
3 march, wed
wed323:00+11n694078 0.0 1024288
02:00+9n46508 0.0 1024179
05:00+7nne35574 0.0 1023126
08:00+6n345786 0.0 1024125
11:00+10ne224343 0.0 1024338
14:00+13ne32320 0.0 1021744
17:00+15e44290 0.0 10191042
20:00+14ene47330 0.0 1018182
4 march, thu
thu423:00+13e47360 0.0 1017106
02:00+12e344056 0.1 101650
05:00+11ese454538 0.1 101566
08:00+11se46640 0.0 101587
11:00+17sw45430 0.0 1016375
14:00+19wnw910350 0.0 10181119
17:00+16nnw1113339 0.0 10211381
20:00+13nnw810486 0.0 10251387
5 march, fri
fri523:00+11nnw574532 0.0 1029937
02:00+10n234985 0.0 102978
05:00+8ne335743 0.0 102947
08:00+7ene57670 0.0 1028221
11:00+11e66510 0.0 1027678
14:00+15e783711 0.0 10221101
17:00+16e8103339 0.0 10171147
20:00+15ese7123299 0.0 1014425
6 march, sat
sat623:00+15ese9184392 0.1 1011625
02:00+14ese91460100 0.8 1007361
05:00+13ese91368100 3.1 1006396
08:00+14s4767100 0.4 1009199
11:00+10w131685100 0.8 1012558
14:00+7wnw131676100 0.3 1014821
17:00+5wnw101484100 0.3 1017746
20:00+6wnw91282100 0.3 1020709
7 march, sun
sun723:00+6nw6963100 0.4 1023995
02:00+6wsw4766100 0.0 1022437
05:00+5wsw477686 0.0 1021219
08:00+5ssw357635 0.0 1021195
11:00+9s454918 0.0 1020774
14:00+13se56310 0.0 10161095
17:00+15ese78290 0.0 10131163
20:00+13ese7113767 0.0 1013398